Location: Evensen
(52.5775°N, 9.5258°E)
Time: 08:35:24
(UTC+00:00)

ISS - Pass Details

Date: 15 May 2026
Orbit: 413 x 423 km, 51.6° (Epoch: 6 June)

Event Time Altitude Azimuth Distance (km) Brightness Sun altitude
Rises 21:21:21 0° 276° (W) 2,352 0.6 -14.0°
Reaches altitude 10° 21:23:27 10° 274° (W) 1,489 -0.5 -14.2°
Maximum altitude 21:26:45 64° 192° (SSW) 463 -3.8 -14.4°
Enters shadow 21:28:27 26° 117° (ESE) 863 -2.6 -14.5°
